Location: Asheville, NC
(35.6000°N, 82.5500°W)
Time: 11:01:50
(UTC-04:00)

M-CUBED/EXP-1 PRIME - Pass Details

Date: 10 February 2018
Orbit: 431 x 676 km, 101.7° (Epoch: 24 May)

Event Time Altitude Azimuth Distance (km) Brightness Sun altitude
Rises 05:54:12 0° 24° (NNE) 2,441 ? -18.4°
Reaches altitude 10° 05:56:14 10° 31° (NNE) 1,588 ? -17.9°
Maximum altitude 05:59:28 44° 105° (ESE) 656 ? -17.3°
Drops below altitude 10° 06:02:53 10° 179° (S) 1,675 ? -16.6°
Sets 06:05:05 0° 185° (S) 2,595 ? -16.2°
